, AK

(GMT )
Deadhorse

Weather History for PASC - February, 2013

Change the Weather History Date:

Tuesday, February 5, 2013

  Actual Average Record
Temperature  
Mean Temperature -32 °F -  
Max Temperature -25 °F -7 °F 28 °F (1989)
Min Temperature -40 °F -19 °F -49 °F (1991)
Degree Days  
Heating Degree Days 98    
Moisture  
Dew Point -40 °F    
Average Humidity 70    
Maximum Humidity 76    
Minimum Humidity 67    
Precipitation  
Precipitation 0.00 in - - ()
Sea Level Pressure  
Sea Level Pressure 30.21 in    
Wind  
Wind Speed 7 mph (SW)    
Max Wind Speed 12 mph    
Max Gust Speed -    
Visibility 9 miles    
Events Snow    
Averages and records for this station are not official NWS values.
T = Trace of Precipitation, MM = Missing Value Source: NWS Daily Summary

Daily Weather History Graph

Daily Weather History Graph

Search for Another Location

Airport or City:

Trip Planner

Search our weather history database for the weather conditions in past years. The results will help you decide how hot, cold, wet, or windy it might be!

Date:

Astronomy

Feb. 05, 2013 Rise Set
Actual Time 10:17 AM AKST 3:59 PM AKST
Civil Twilight 8:57 AM AKST 5:19 PM AKST
Nautical Twilight 7:41 AM AKST 6:36 PM AKST
Astronomical Twilight 6:29 AM AKST 7:47 PM AKST
Moon No Moon Rise No Moon Set
Length of Visible Light 8h 22m
Length of Day
5h 42m
Waning Crescent, 25% of the Moon is Illuminated
Feb 5
Waning Crescent
Feb 9
New
Feb 17
First Quarter
Feb 25
Full
Mar 4
Last Quarter

Hourly Weather History & Observations

Time (AKST) Temp. Windchill Dew Point Humidity Pressure Visibility Wind Dir Wind Speed Gust Speed Precip Events Conditions
12:53 AM -25.6 °F -39.8 °F -31.0 °F 76% 30.22 in 7.0 mi North 4.6 mph - N/A   Clear
1:53 AM -27.4 °F -39.2 °F -32.8 °F 75% 30.22 in 7.0 mi WNW 3.5 mph - N/A   Clear
2:53 AM -31.0 °F -50.3 °F -36.4 °F 75% 30.22 in 7.0 mi West 6.9 mph - N/A   Clear
3:53 AM -31.0 °F -48.4 °F -38.2 °F 68% 30.21 in 7.0 mi West 5.8 mph - N/A   Clear
4:53 AM -32.8 °F -50.5 °F -40.0 °F 68% 30.21 in 7.0 mi WSW 5.8 mph - N/A   Clear
5:53 AM -34.6 °F -56.3 °F -40.0 °F 75% 30.21 in 7.0 mi WSW 8.1 mph - N/A   Clear
6:53 AM -34.6 °F -57.8 °F -41.8 °F 68% 30.22 in 10.0 mi SSW 9.2 mph - N/A   Clear
7:48 AM -34.6 °F -57.8 °F -41.8 °F 68% 30.22 in 7.0 mi SW 9.2 mph - N/A   Clear
8:53 AM -34.6 °F -57.8 °F -41.8 °F 68% 30.22 in 7.0 mi SW 9.2 mph - N/A   Clear
9:54 AM -34.6 °F -54.6 °F -41.8 °F 68% 30.22 in 10.0 mi SSW 6.9 mph - N/A   Clear
11:05 AM -36.4 °F -60.1 °F -43.6 °F 67% 30.22 in 10.0 mi SSW 9.2 mph - N/A   Clear
11:07 AM -36.4 °F -60.1 °F -43.6 °F 67% 30.22 in 10.0 mi SSW 9.2 mph - N/A   Clear
11:53 AM -36.4 °F -60.1 °F -41.8 °F 75% 30.22 in 10.0 mi SSW 9.2 mph - N/A   Clear
12:53 PM -34.6 °F -57.8 °F -41.8 °F 68% 30.22 in 10.0 mi SSW 9.2 mph - N/A   Clear
1:53 PM -34.6 °F -57.8 °F -41.8 °F 68% 30.23 in 10.0 mi SSW 9.2 mph - N/A   Clear
2:53 PM -34.6 °F -57.8 °F -41.8 °F 68% 30.22 in 10.0 mi SSW 9.2 mph - N/A   Clear
3:53 PM -38.0 °F -63.5 °F - N/A% 30.21 in 9.0 mi SW 10.4 mph - N/A Snow Light Snow
4:53 PM -38.9 °F -65.9 °F - N/A% 30.20 in 10.0 mi SW 11.5 mph - N/A   Partly Cloudy
5:53 PM -38.9 °F -64.6 °F - N/A% 30.20 in 10.0 mi SW 10.4 mph - N/A   Clear
6:53 PM -38.9 °F -61.6 °F - N/A% 30.19 in 10.0 mi WSW 8.1 mph - N/A   Partly Cloudy
7:53 PM -38.9 °F -65.9 °F - N/A% 30.18 in 10.0 mi SW 11.5 mph - N/A   Clear
8:53 PM -40.0 °F -64.5 °F - N/A% 30.18 in 10.0 mi SW 9.2 mph - N/A   Partly Cloudy
9:53 PM -40.0 °F -62.9 °F - N/A% 30.18 in 10.0 mi SW 8.1 mph - N/A   Scattered Clouds
10:53 PM -38.9 °F -64.6 °F - N/A% 30.17 in 10.0 mi SW 10.4 mph - N/A   Scattered Clouds
11:18 PM -38.2 °F -63.7 °F - N/A% 30.17 in 7.0 mi SW 10.4 mph - N/A   Mostly Cloudy
11:53 PM -38.0 °F -63.5 °F - N/A% 30.17 in 7.0 mi SW 10.4 mph - N/A   Mostly Cloudy